Starlink 5988

operational
NORAD ID: 56320 Int'l Des: 2023-058 Owner: SPXS Country: US Constellation: starlink
LEOCIRCULARRETROGRADESSO

关于 Starlink 5988

正在加载描述...

实时位置

正在加载3D地球...

即将过境

高度历史

Altitude vs Time

uPlot chart will show altitude changes over time

两行轨道根数

1 56320U 23058D 26036.21761478 .00001038 00000-0 85358-4 0 9992
2 56320 97.6059 38.3419 0001993 83.2601 276.8850 15.01262689152918
Epoch: Feb 5, 2026 • Age: 10 hours

当前状态

高度 565.8 km
速度 7.58 km/s
星下点 25.85°N, 145.9°W
发射日期 Apr 27, 2023
运行时间 2.7 years
类型 internet

技术详情

分类 Payload
质量 300.00 kg
干质量 260.00 kg
总质量 300.00 kg
长度 0.20 m
直径 2.80 m
跨度 9.00 m
形状 Box + pan
制造商 SPXS
平台类型 Starlink
阶段状态 In Orbit
所有者/国家 SPXS/US

大型星座

Loading constellations...